EW6470 Weather Reports


Display with metric or nautical units.
time (UTC)temp
F
wind
direction
speed
MPH
gust
MPH
rain 1hr
in
rain 24hr
in
rain mn
in
humidity
%
barometer
mb
20260831030520 52 0 0.0 0.0 0.00 0.00 0.00 90 1009.2
20260831030037 52 0 0.0 0.0 0.00 0.00 0.00 90 1009.3
20260831025521 52 0 0.0 0.0 0.00 0.00 0.00 90 1009.3
20260831025018 52 0 0.0 0.0 0.00 0.00 0.00 90 1009.5
20260831024538 52 0 0.0 0.0 0.00 0.00 0.00 89 1009.5
20260831024018 53 0 0.0 0.0 0.00 0.00 0.00 88 1009.5
20260831023519 53 0 0.0 0.0 0.00 0.00 0.00 88 1009.6
20260831023033 53 0 0.0 0.0 0.00 0.00 0.00 87 1009.7
20260831022518 53 0 0.0 0.0 0.00 0.00 0.00 87 1009.7
20260831022017 53 0 0.0 0.0 0.00 0.00 0.00 87 1009.9
20260831021533 53 0 0.0 0.0 0.00 0.00 0.00 86 1009.9
20260831021024 53 0 0.0 0.0 0.00 0.00 0.00 86 1010.0
20260831020522 54 0 0.0 0.0 0.00 0.00 0.00 85 1009.9
20260831020036 54 0 0.0 0.0 0.00 0.00 0.00 84 1009.9
20260831015521 54 0 0.0 0.0 0.00 0.00 0.00 82 1010.0
20260831015018 55 0 0.0 0.0 0.00 0.00 0.00 80 1010.2
20260831014534 55 0 0.0 0.0 0.00 0.00 0.00 78 1010.2
20260831014016 55 0 0.0 1.0 0.00 0.00 0.00 78 1010.3
20260831013518 55 0 0.0 3.0 0.00 0.00 0.00 77 1010.3
20260831013036 55 219 0.0 3.0 0.00 0.00 0.00 76 1010.2
20260831012518 55 0 0.0 2.0 0.00 0.00 0.00 76 1010.3
20260831012020 55 162 0.0 1.0 0.00 0.00 0.00 77 1010.3
20260831011542 55 0 0.0 0.0 0.00 0.00 0.00 76 1010.1
20260831011020 55 0 0.0 0.0 0.00 0.00 0.00 75 1010.4
20260831010519 55 0 0.0 2.0 0.00 0.00 0.00 76 1010.4
20260831010037 55 0 0.0 3.0 0.00 0.00 0.00 76 1010.4
20260831005516 55 0 1.0 3.0 0.00 0.00 0.00 75 1010.6
20260831005019 55 248 0.0 3.0 0.00 0.00 0.00 75 1010.6
20260831004534 55 203 1.0 4.0 0.00 0.00 0.00 74 1010.6
20260831004018 55 189 0.0 4.0 0.00 0.00 0.00 74 1010.5
20260831003520 56 0 0.0 2.0 0.00 0.00 0.00 74 1010.5
20260831003038 56 171 0.0 2.0 0.00 0.00 0.00 74 1010.6
20260831002520 56 261 0.0 3.0 0.00 0.00 0.00 74 1010.7
20260831002017 56 0 0.0 3.0 0.00 0.00 0.00 74 1010.8
20260831001536 56 166 1.0 3.0 0.00 0.00 0.00 74 1010.8
20260831001022 56 0 0.0 3.0 0.00 0.00 0.00 74 1010.8
20260831000518 57 0 0.0 2.0 0.00 0.00 0.00 72 1010.9
20260831000040 57 143 1.0 2.0 0.00 0.00 0.00 68 1010.9
20260830235516 57 0 0.0 0.0 0.00 0.00 0.00 67 1011.0
20260830235021 57 0 0.0 1.0 0.00 0.00 0.00 68 1010.8
20260830234539 57 0 0.0 1.0 0.00 0.00 0.00 65 1011.0
20260830234020 57 213 0.0 5.0 0.00 0.00 0.00 64 1011.0
20260830233521 57 0 0.0 5.0 0.00 0.00 0.00 64 1011.0
20260830233040 57 0 0.0 3.0 0.00 0.00 0.00 65 1011.3
20260830232520 57 0 0.0 4.0 0.00 0.00 0.00 64 1011.4
20260830232018 57 211 0.0 4.0 0.00 0.00 0.00 65 1011.4
20260830231534 57 0 0.0 1.0 0.00 0.00 0.00 66 1011.5
20260830231018 57 0 0.0 1.0 0.00 0.00 0.00 67 1011.4
20260830230515 57 0 0.0 1.0 0.00 0.00 0.00 67 1011.5
20260830230037 56 0 0.0 3.0 0.00 0.00 0.00 66 1011.4
20260830225515 56 0 0.0 4.0 0.00 0.00 0.00 65 1011.4
20260830225020 57 210 1.0 4.0 0.00 0.00 0.00 65 1011.4
20260830224536 57 0 1.0 4.0 0.00 0.00 0.00 65 1011.6
20260830224022 56 0 0.0 0.0 0.00 0.00 0.00 66 1011.6
20260830223523 56 0 0.0 2.0 0.00 0.00 0.00 68 1011.5
20260830223035 57 0 0.0 2.0 0.00 0.00 0.00 67 1011.7
20260830222519 57 284 0.0 2.0 0.00 0.00 0.00 66 1011.7
20260830222016 57 263 0.0 2.0 0.00 0.00 0.00 65 1011.8
20260830221540 58 279 0.0 2.0 0.00 0.00 0.00 66 1012.0
20260830221018 58 0 0.0 2.0 0.00 0.00 0.00 69 1011.8
20260830220518 58 0 0.0 2.0 0.00 0.00 0.00 66 1011.8
20260830220035 58 0 0.0 2.0 0.00 0.00 0.00 65 1011.6
20260830215520 58 0 0.0 4.0 0.00 0.00 0.00 69 1011.8
20260830215020 58 0 0.0 4.0 0.00 0.00 0.00 67 1011.8
20260830214534 58 0 1.0 3.0 0.00 0.00 0.00 66 1011.9
20260830214021 58 0 0.0 2.0 0.00 0.00 0.00 67 1011.8
20260830213516 58 253 0.0 2.0 0.00 0.00 0.00 67 1012.0
20260830213039 57 0 0.0 2.0 0.00 0.00 0.00 72 1011.9
20260830212518 57 225 0.0 1.0 0.00 0.00 0.00 68 1011.9
20260830212018 57 0 0.0 2.0 0.00 0.00 0.00 68 1012.0
20260830211535 57 0 0.0 3.0 0.00 0.00 0.00 71 1012.0
20260830211029 57 292 0.0 3.0 0.00 0.00 0.00 70 1012.1
20260830210520 57 173 1.0 3.0 0.00 0.00 0.00 71 1012.2
20260830210035 57 240 1.0 2.0 0.00 0.00 0.00 69 1012.4
20260830205519 56 180 0.0 3.0 0.00 0.00 0.00 74 1012.3
20260830205019 56 251 0.0 3.0 0.00 0.00 0.00 72 1012.5
20260830204534 56 211 0.0 1.0 0.00 0.00 0.00 71 1012.5
20260830204016 56 0 0.0 2.0 0.00 0.00 0.00 73 1012.6
20260830203518 56 0 0.0 4.0 0.00 0.00 0.00 74 1012.6
20260830203036 55 0 0.0 4.0 0.00 0.00 0.00 74 1012.5
20260830202518 55 163 0.0 3.0 0.00 0.00 0.00 77 1012.5
20260830202018 55 0 0.0 0.0 0.00 0.00 0.00 76 1012.7
20260830201536 54 0 0.0 0.0 0.00 0.00 0.00 77 1012.7
20260830201019 54 0 0.0 0.0 0.00 0.00 0.00 77 1012.9
20260830200519 54 0 0.0 3.0 0.00 0.00 0.00 74 1012.9
20260830200034 54 0 0.0 3.0 0.00 0.00 0.00 77 1012.9
20260830195520 53 206 0.0 3.0 0.00 0.00 0.00 76 1013.0
20260830195018 53 0 0.0 2.0 0.00 0.00 0.00 77 1013.2
20260830194534 53 251 0.0 2.0 0.00 0.00 0.00 77 1013.2
20260830194019 53 0 0.0 2.0 0.00 0.00 0.00 78 1013.1
20260830193518 53 0 0.0 3.0 0.00 0.00 0.00 77 1013.2
20260830193036 53 150 0.0 3.0 0.00 0.00 0.00 78 1013.1
20260830192519 52 0 0.0 3.0 0.00 0.00 0.00 80 1013.2
20260830192022 52 162 0.0 3.0 0.00 0.00 0.00 80 1013.2
20260830191542 52 258 1.0 3.0 0.00 0.00 0.00 79 1013.3
20260830191021 52 0 0.0 1.0 0.00 0.00 0.00 82 1013.4
20260830190518 52 0 0.0 3.0 0.00 0.00 0.00 82 1013.4
20260830190033 51 0 0.0 3.0 0.00 0.00 0.00 82 1013.4
20260830185517 51 183 1.0 3.0 0.00 0.00 0.00 84 1013.5
20260830185016 51 0 0.0 1.0 0.00 0.00 0.00 85 1013.6
20260830184535 50 0 0.0 0.0 0.00 0.00 0.00 86 1013.6
20260830184015 50 0 0.0 0.0 0.00 0.00 0.00 87 1013.7
20260830183518 50 0 0.0 0.0 0.00 0.00 0.00 88 1013.7
20260830183036 49 0 0.0 0.0 0.00 0.00 0.00 89 1013.7
20260830182523 49 0 0.0 0.0 0.00 0.00 0.00 89 1013.8
20260830182018 49 0 0.0 0.0 0.00 0.00 0.00 90 1013.8
20260830181536 48 0 0.0 0.0 0.00 0.00 0.00 91 1013.8
20260830181020 48 0 0.0 0.0 0.00 0.00 0.00 93 1013.9
20260830180521 47 0 0.0 0.0 0.00 0.00 0.00 94 1013.9
20260830180039 47 0 0.0 0.0 0.00 0.00 0.00 95 1013.8
20260830175516 46 0 0.0 0.0 0.00 0.00 0.00 95 1013.9
20260830175018 46 0 0.0 0.0 0.00 0.00 0.00 96 1014.0
20260830174537 46 0 0.0 0.0 0.00 0.00 0.00 96 1014.1
20260830174019 45 0 0.0 0.0 0.00 0.00 0.00 96 1014.3
20260830173520 45 0 0.0 0.0 0.00 0.00 0.00 96 1014.3
20260830173035 45 0 0.0 0.0 0.00 0.00 0.00 96 1014.3
20260830172520 44 0 0.0 0.0 0.00 0.00 0.00 96 1014.4
20260830172017 44 0 0.0 0.0 0.00 0.00 0.00 96 1014.5
20260830171534 44 0 0.0 0.0 0.00 0.00 0.00 96 1014.4
20260830171018 43 0 0.0 0.0 0.00 0.00 0.00 96 1014.4
20260830170518 43 0 0.0 0.0 0.00 0.00 0.00 96 1014.4
20260830170042 42 0 0.0 0.0 0.00 0.00 0.00 96 1014.2
20260830165518 42 0 0.0 0.0 0.00 0.00 0.00 96 1014.2
20260830165020 42 0 0.0 0.0 0.00 0.00 0.00 96 1014.2
20260830164534 41 0 0.0 0.0 0.00 0.00 0.00 96 1014.1
20260830164021 41 0 0.0 0.0 0.00 0.00 0.00 96 1014.2
20260830163521 40 0 0.0 0.0 0.00 0.00 0.00 96 1014.1
20260830163036 40 0 0.0 0.0 0.00 0.00 0.00 96 1014.1
20260830162518 40 0 0.0 0.0 0.00 0.00 0.00 96 1014.2
20260830162017 39 0 0.0 0.0 0.00 0.00 0.00 96 1014.1
20260830161537 39 0 0.0 0.0 0.00 0.00 0.00 96 1014.1
20260830161018 39 0 0.0 0.0 0.00 0.00 0.00 96 1014.2
20260830160518 39 0 0.0 0.0 0.00 0.00 0.00 96 1014.2
20260830160037 38 0 0.0 0.0 0.00 0.00 0.00 96 1014.2
20260830155517 38 0 0.0 0.0 0.00 0.00 0.00 96 1014.3
20260830155018 37 0 0.0 0.0 0.00 0.00 0.00 96 1014.4
20260830154535 37 0 0.0 0.0 0.00 0.00 0.00 96 1014.3
20260830154018 37 0 0.0 0.0 0.00 0.00 0.00 96 1014.3
20260830153520 37 0 0.0 0.0 0.00 0.00 0.00 95 1014.1
20260830153037 37 0 0.0 0.0 0.00 0.00 0.00 95 1014.0
20260830152518 37 0 0.0 0.0 0.00 0.00 0.00 95 1014.0
20260830152024 37 0 0.0 0.0 0.00 0.00 0.00 95 1013.8
20260830151535 37 0 0.0 0.0 0.00 0.00 0.00 95 1013.9
20260830151016 37 0 0.0 0.0 0.00 0.00 0.00 95 1013.7
20260830150516 37 0 0.0 0.0 0.00 0.00 0.00 95 1013.8
20260830150036 37 0 0.0 0.0 0.00 0.00 0.00 95 1013.7
20260830145521 37 0 0.0 0.0 0.00 0.00 0.00 95 1013.8
20260830145020 37 0 0.0 0.0 0.00 0.00 0.00 95 1013.6
20260830144547 37 0 0.0 0.0 0.00 0.00 0.00 95 1013.7
20260830144019 38 0 0.0 0.0 0.00 0.00 0.00 95 1013.7
20260830143519 38 0 0.0 0.0 0.00 0.00 0.00 95 1013.7
20260830143036 38 0 0.0 0.0 0.00 0.00 0.00 95 1013.6
20260830142518 38 0 0.0 0.0 0.00 0.00 0.00 95 1013.6
20260830142019 38 0 0.0 0.0 0.00 0.00 0.00 95 1013.5
20260830141534 38 0 0.0 0.0 0.00 0.00 0.00 95 1013.7
20260830141015 38 0 0.0 0.0 0.00 0.00 0.00 95 1013.8
20260830140520 38 0 0.0 0.0 0.00 0.00 0.00 95 1013.7
20260830140037 38 0 0.0 0.0 0.00 0.00 0.00 96 1013.7
20260830135521 38 0 0.0 0.0 0.00 0.00 0.00 96 1013.6
20260830135017 38 0 0.0 0.0 0.00 0.00 0.00 95 1013.6
20260830134539 38 0 0.0 0.0 0.00 0.00 0.00 95 1013.7
20260830134015 38 0 0.0 0.0 0.00 0.00 0.00 95 1013.5
20260830133518 38 0 0.0 0.0 0.00 0.00 0.00 95 1013.5
20260830133035 38 0 0.0 0.0 0.00 0.00 0.00 95 1013.5
20260830132519 38 0 0.0 0.0 0.00 0.00 0.00 95 1013.5
20260830132020 38 0 0.0 0.0 0.00 0.00 0.00 95 1013.5
20260830131542 38 0 0.0 0.0 0.00 0.00 0.00 95 1013.5
20260830131020 38 0 0.0 0.0 0.00 0.00 0.00 95 1013.5
20260830130518 38 0 0.0 0.0 0.00 0.00 0.00 95 1013.5
20260830130037 38 0 0.0 0.0 0.00 0.00 0.00 95 1013.5
20260830125515 38 0 0.0 0.0 0.00 0.00 0.00 95 1013.4
20260830125021 38 0 0.0 0.0 0.00 0.00 0.00 95 1013.5
20260830124537 38 0 0.0 0.0 0.00 0.00 0.00 95 1013.5
20260830124020 38 0 0.0 0.0 0.00 0.00 0.00 95 1013.6
20260830123514 38 0 0.0 0.0 0.00 0.00 0.00 95 1013.6
20260830123034 38 0 0.0 0.0 0.00 0.00 0.00 95 1013.6
20260830122519 38 0 0.0 0.0 0.00 0.00 0.00 95 1013.6
20260830122019 38 0 0.0 0.0 0.00 0.00 0.00 95 1013.6
20260830121534 39 0 0.0 0.0 0.00 0.00 0.00 95 1013.5
20260830121017 39 0 0.0 0.0 0.00 0.00 0.00 95 1013.5
20260830120516 39 0 0.0 0.0 0.00 0.00 0.00 95 1013.5
20260830120038 39 0 0.0 0.0 0.00 0.00 0.00 95 1013.5
20260830115518 39 0 0.0 0.0 0.00 0.01 0.00 95 1013.3
20260830115016 39 0 0.0 0.0 0.00 0.01 0.00 95 1013.3
20260830114536 39 0 0.0 0.0 0.00 0.01 0.00 95 1013.2
20260830114016 39 0 0.0 0.0 0.00 0.01 0.00 95 1013.0
20260830113517 40 0 0.0 0.0 0.00 0.01 0.00 95 1013.1
20260830113031 40 0 0.0 0.0 0.00 0.01 0.00 95 1012.9
20260830112517 40 0 0.0 0.0 0.00 0.01 0.00 95 1012.9
20260830112016 40 0 0.0 0.0 0.00 0.01 0.00 95 1012.8
20260830111534 40 0 0.0 0.0 0.00 0.01 0.00 95 1012.7
20260830111016 40 0 0.0 0.0 0.00 0.01 0.00 95 1012.8
20260830110515 40 0 0.0 0.0 0.00 0.01 0.00 95 1012.7
20260830110037 40 0 0.0 0.0 0.00 0.01 0.00 95 1012.7
20260830105517 40 0 0.0 0.0 0.00 0.01 0.00 94 1012.5
20260830105017 41 0 0.0 0.0 0.00 0.01 0.00 95 1012.5
20260830104533 41 0 0.0 0.0 0.00 0.01 0.00 95 1012.5
20260830104022 41 0 0.0 0.0 0.00 0.01 0.00 95 1012.5
20260830103522 41 0 0.0 0.0 0.00 0.01 0.00 95 1012.6
20260830103033 41 0 0.0 0.0 0.00 0.01 0.00 95 1012.5
20260830102522 41 0 0.0 0.0 0.00 0.01 0.00 95 1012.4
20260830102022 41 0 0.0 0.0 0.00 0.01 0.00 95 1012.4
20260830101537 42 0 0.0 0.0 0.00 0.01 0.00 95 1012.5
20260830101017 42 0 0.0 0.0 0.00 0.01 0.00 95 1012.3
20260830100520 42 0 0.0 0.0 0.00 0.01 0.00 95 1012.3
20260830100034 42 0 0.0 0.0 0.00 0.01 0.00 95 1012.3
20260830095516 42 0 0.0 0.0 0.00 0.02 0.00 95 1012.2
20260830095020 42 0 0.0 0.0 0.00 0.02 0.00 95 1012.3
20260830094535 42 0 0.0 0.0 0.00 0.02 0.00 95 1012.1
20260830094019 42 0 0.0 0.0 0.00 0.02 0.00 95 1012.1
20260830093517 42 0 0.0 0.0 0.00 0.02 0.00 94 1012.3
20260830093041 43 0 0.0 0.0 0.00 0.02 0.00 94 1012.2
20260830092518 43 0 0.0 0.0 0.00 0.02 0.00 94 1012.1
20260830092016 43 0 0.0 0.0 0.00 0.02 0.00 94 1012.0
20260830091534 43 0 0.0 0.0 0.00 0.02 0.00 94 1012.0
20260830091020 44 0 0.0 0.0 0.00 0.02 0.00 94 1011.9
20260830090520 44 0 0.0 0.0 0.00 0.02 0.00 94 1011.9
20260830090035 44 0 0.0 0.0 0.00 0.02 0.00 94 1012.0
20260830085516 44 0 0.0 0.0 0.00 0.06 0.00 94 1011.9
20260830085022 44 0 0.0 0.0 0.00 0.06 0.00 94 1011.8
20260830084538 44 0 0.0 0.0 0.00 0.06 0.00 94 1011.8
20260830084017 45 0 0.0 0.0 0.00 0.06 0.00 94 1011.8
20260830083521 45 0 0.0 0.0 0.00 0.06 0.00 94 1011.7
20260830083037 45 0 0.0 0.0 0.00 0.06 0.00 94 1011.7
20260830082518 45 0 0.0 0.0 0.00 0.06 0.00 94 1011.6
20260830082017 45 0 0.0 0.0 0.00 0.06 0.00 94 1011.5
20260830081533 45 0 0.0 0.0 0.00 0.06 0.00 94 1011.5
20260830081019 45 0 0.0 0.0 0.00 0.06 0.00 94 1011.4
20260830080519 45 0 0.0 0.0 0.00 0.06 0.00 94 1011.5
20260830080035 45 0 0.0 0.0 0.00 0.06 0.00 94 1011.5
20260830075517 46 0 0.0 0.0 0.00 0.14 0.06 93 1011.4
20260830075015 46 0 0.0 0.0 0.00 0.14 0.06 93 1011.3
20260830074536 46 0 0.0 0.0 0.00 0.14 0.06 93 1011.3
20260830074019 46 0 0.0 0.0 0.00 0.14 0.06 93 1011.2
20260830073515 47 0 0.0 0.0 0.00 0.14 0.06 93 1011.0
20260830073041 47 0 0.0 0.0 0.00 0.14 0.06 93 1011.0
20260830072519 47 0 0.0 0.0 0.00 0.14 0.06 93 1011.1
20260830072016 47 0 0.0 0.0 0.00 0.14 0.06 93 1011.0
20260830071532 47 0 0.0 0.0 0.00 0.14 0.06 93 1011.0
20260830071021 48 0 0.0 0.0 0.00 0.14 0.06 93 1010.8
20260830070517 48 0 0.0 0.0 0.00 0.14 0.06 92 1010.9
20260830070035 48 0 0.0 0.0 0.00 0.14 0.06 92 1010.8
20260830065517 48 0 0.0 0.0 0.00 0.27 0.06 92 1010.6
20260830065017 48 0 0.0 0.0 0.00 0.27 0.06 92 1010.6
20260830064536 48 0 0.0 0.0 0.00 0.27 0.06 91 1010.8
20260830064020 49 0 0.0 0.0 0.00 0.27 0.06 91 1010.8
20260830063521 49 0 0.0 0.0 0.00 0.27 0.06 91 1010.6
20260830063036 49 0 0.0 0.0 0.00 0.27 0.06 90 1010.5
20260830062518 50 0 0.0 0.0 0.00 0.27 0.06 90 1010.7
20260830062018 50 0 0.0 0.0 0.00 0.27 0.06 89 1010.6
20260830061532 50 0 0.0 0.0 0.00 0.27 0.06 89 1010.4
20260830061018 51 0 0.0 0.0 0.00 0.27 0.06 89 1010.5
20260830060518 51 0 0.0 0.0 0.00 0.27 0.06 88 1010.4
20260830060035 52 0 0.0 0.0 0.00 0.27 0.06 88 1010.4
20260830055519 52 0 0.0 0.0 0.00 0.36 0.06 87 1010.4
20260830055018 52 0 0.0 0.0 0.00 0.36 0.06 86 1010.3
20260830054534 53 0 0.0 0.0 0.00 0.36 0.06 84 1010.2
20260830054021 53 0 0.0 0.0 0.00 0.36 0.06 84 1010.2
20260830053520 54 0 0.0 0.0 0.00 0.36 0.06 83 1010.2
20260830053034 54 0 0.0 0.0 0.00 0.36 0.06 82 1010.1
20260830052518 55 0 0.0 0.0 0.00 0.36 0.06 80 1010.2
20260830052019 55 0 0.0 1.0 0.00 0.36 0.06 79 1010.1
20260830051537 56 0 0.0 1.0 0.00 0.36 0.06 77 1010.0
20260830051016 57 0 0.0 0.0 0.00 0.36 0.06 74 1009.9
20260830050518 57 0 0.0 0.0 0.00 0.36 0.06 74 1010.0
20260830050035 57 0 0.0 0.0 0.00 0.36 0.06 73 1009.8
20260830045517 58 0 0.0 0.0 0.00 0.36 0.06 72 1009.8
20260830045019 58 0 0.0 2.0 0.00 0.36 0.06 72 1009.7
20260830044535 58 0 0.0 2.0 0.00 0.36 0.06 72 1009.7
20260830044018 58 0 0.0 0.0 0.00 0.36 0.06 71 1009.6
20260830043519 59 0 0.0 0.0 0.00 0.36 0.06 70 1009.7
20260830043034 59 0 0.0 1.0 0.00 0.36 0.06 69 1009.6
20260830042516 59 0 0.0 1.0 0.00 0.36 0.06 69 1009.6
20260830042020 59 0 0.0 1.0 0.00 0.36 0.06 69 1009.5
20260830041535 60 0 0.0 1.0 0.00 0.36 0.06 68 1009.6
20260830041019 60 0 0.0 1.0 0.00 0.36 0.06 68 1009.5
20260830040519 60 0 0.0 3.0 0.00 0.36 0.06 68 1009.6
20260830040038 60 0 0.0 3.0 0.00 0.36 0.06 68 1009.5
20260830035516 60 0 0.0 2.0 0.00 0.36 0.06 68 1009.5
20260830035016 60 0 0.0 1.0 0.00 0.36 0.06 68 1009.4
20260830034535 60 0 0.0 2.0 0.00 0.36 0.06 68 1009.4
20260830034019 61 0 0.0 2.0 0.00 0.36 0.06 68 1009.3
20260830033519 61 0 0.0 3.0 0.00 0.36 0.06 66 1009.3
20260830033101 61 0 0.0 3.0 0.00 0.36 0.06 66 1009.2
20260830032516 61 0 0.0 3.0 0.00 0.36 0.06 67 1009.2
20260830032016 61 65 0.0 2.0 0.00 0.36 0.06 67 1009.2
20260830031537 62 0 0.0 2.0 0.00 0.36 0.06 66 1009.2
20260830031022 62 0 0.0 2.0 0.00 0.36 0.06 66 1009.1